Regional Weather Roundup
Issued by NWS

Home | Current Version | Previous Version | Text Only | Print | Product List | Glossary On
Versions: 1 2 3 4 5 6 7 8 9 10 11 12 13 14 15 16 17 18 19 20 21 22 23 24 25 26 27 28 29 30 31 32 33 34 35 36 37 38 39 40 41 42 43 44 45 46 47 48 49 50
000
ASUS44 KLUB 251510
RWRLUB
WEST TEXAS WEATHER ROUNDUP
NATIONAL WEATHER SERVICE LUBBOCK TX
1000 AM CDT WED APR 25 2018

NOTE: "FAIR" INDICATES FEW OR NO CLOUDS BELOW 12,000 FEET WITH NO
SIGNIFICANT WEATHER AND/OR OBSTRUCTIONS TO VISIBILITY.

TXZ004-006>008-010-012-014-016-OKZ002-251600-
TEXAS PANHANDLE/OKLAHOMA PANHANDLE

CITY           SKY/WX    TMP DP  RH WIND       PRES   REMARKS
AMARILLO       CLOUDY    39  34  82 N20       30.35S WCI  29
BORGER         CLOUDY    42  34  73 N14       30.35S
CANADIAN       CLOUDY    44  40  86 N20       30.33S
DALHART        MOSUNNY   44  36  73 N20       30.36S
DUMAS          CLOUDY    40  35  81 N17       30.35  WCI  31
GUYMON         SUNNY     44  33  65 N20G28    30.34F
HEREFORD       CLOUDY    42  37  80 N17G24    30.37S
PAMPA          CLOUDY    43  38  84 N22G29    30.33S
PERRYTON       CLOUDY    42  37  82 N15G23    30.32S
$$

TXZ026-029-035-045-048-251600-
SOUTHERN PANHANDLE/SOUTH PLAINS/ROLLING PLAINS

CITY           SKY/WX    TMP DP  RH WIND       PRES   REMARKS
CHILDRESS      LGT RAIN  43  42  97 N15       30.33S
SEMINOLE       CLOUDY    42  38  86 N12G20    30.34S
LUBBOCK        CLOUDY    42  37  82 N15G30    30.32S
PLAINVIEW      CLOUDY    38  36  95 N23G30    30.31F WCI  27
SNYDER         LGT RAIN  44  42  95 N17G23    30.29R
$$

TXZ052-054-060>062-072-078-127-140-154-169-251600-
PERMIAN BASIN/CONCHO VALLEY/BIG COUNTRY/EDWARDS PLATEAU

CITY           SKY/WX    TMP DP  RH WIND       PRES   REMARKS
ABILENE        CLOUDY    48  44  86 N20       30.26R
BIG SPRING     CLOUDY    45  43  93 N13       30.32R
BRADY          CLOUDY    57  46  67 N20G28    30.19R
BROWNWOOD      CLOUDY    57  45  62 N18G26    30.21R
JUNCTION       CLOUDY    71  54  54 CALM      30.13F
MIDLAND        CLOUDY    48  39  71 N24G32    30.29R
ODESSA         LGT RAIN  45  40  82 NE20G26   30.30R
SAN ANGELO     CLOUDY    56  44  64 N17       30.24R
SONORA         CLOUDY    70  55  60 N7        30.19R
SWEETWATER     CLOUDY    46  42  86 N20G26    30.32R
WINK           CLOUDY    47  40  76 N17G28    30.32R
$$

TXZ055-058-074-075-080-082-251600-
FAR WEST/SOUTHWEST MOUNTAINS/TRANS PECOS

CITY           SKY/WX    TMP DP  RH WIND       PRES   REMARKS
ALPINE         CLOUDY    47  38  72 NE13G20   30.36R
DRYDEN           N/A     61  44  53 N26G43    30.13R
EL PASO        CLOUDY    57  38  48 E20G28    30.21R
FORT STOCKTON  CLOUDY    51  40  65 NW21      30.30R
GUADALUPE PASS CLOUDY    44  37  76 E35       30.26R
MARFA          MOSUNNY   49  39  68 N23G29    30.27R
PECOS          RAIN      47  42  84 N15       30.36R
PRESIDIO       FAIR      67  44  42 N20G26    30.15S
$$

TXZ014-016-019-021>030-083-251600
TEXAS TECH WEST TEXAS MESONET/TEXAS PANHANDLE/NORTHERN SOUTH PLAINS

CITY           SKY/WX    TMP DP  RH WIND       PRES   REMARKS
ABERNATHY 5ENE   N/A     40  38  90 N17       30.34S WCI  32
AMARILLO 9NNE    N/A     41  34  78 N16       30.36S
AMARILLO 7SSE    N/A     39  32  76 N14       30.36S WCI  31
AMHERST 1NE      N/A     40  36  85 N20       30.35S WCI  30
BOOTLEG 11WNW    N/A     40  29  64 N18       30.39S WCI  31
CANADIAN 6E      N/A     44  38  82 NW17      30.30R
CAPROCK CYN SP   N/A     42  37  83 N14       30.34S
CHILDRESS 2NNE   N/A     42  40  93 NW13      30.32S
CLARENDON 2WSW   N/A     41  37  85 N15       30.32S
CLAUDE 12SW      N/A     39  34  82 NW17      30.33S WCI  30
DIMMITT 2NE      N/A     40  35  84 N18       30.35S WCI  31
FLOYDADA 2NNE    N/A     41  37  84 N17       30.32F
FRIONA 2NE       N/A     42  35  77 N18       30.37S
GOODLETT 3W      N/A     43  40  88 NW17      30.31S
HART 3N          N/A     40  36  86 N20       30.35R WCI  30
HEREFORD 2NW     N/A     41  32  70 N21       30.36S
MCLEAN 1E        N/A     40  38  91 N16       30.29F WCI  32
MEMPHIS 1NE      N/A     43  39  85 N12       30.32F
MULESHOE 2SSW    N/A     42  35  76 N14       30.37S
OLTON 6S         N/A     40  35  81 N23       30.34S WCI  30
PALO DURO SP     N/A     40  32  72 N17       30.36S WCI  31
PAMPA 2E         N/A     40  38  91 NW22      30.32S WCI  30
PLAINVIEW 1S     N/A     40  36  85 N18       30.33S WCI  31
SILVERTON 7ESE   N/A     40  36  84 N16       30.33S WCI  31
TULIA 2ENE       N/A     40  37  91 N18       30.34S WCI  31
TURKEY 2WSW      N/A     42  39  90 NW14      30.33S
UMBARGER 3NNE    N/A     40  33  76 N20       30.37R WCI  31
$$

TXZ033>036-039>041-045>048-251600
TEXAS TECH WEST TEXAS MESONET/SOUTH PLAINS

CITY           SKY/WX    TMP DP  RH WIND       PRES   REMARKS
AIKEN 3WSW       N/A     41  36  83 N22       30.35R
ANDREWS 2NE      N/A     44  37  78 N21       30.32S
ANTON 6SSW       N/A     41  37  84 N20       30.34S
BROWNFIELD 2S    N/A     42  37  81 N22       30.33S
DENVR CTY 7WNW   N/A     41  34  76 N21       30.34S
GAIL 2ESE        N/A     45  38  75 N20       30.30R
LAMESA 2SE       N/A     44  38  82 N21       30.32R
LUBBOCK 3WNW     N/A     42  37  80 N15G24    30.34S
MORTON 1ENE      N/A     41  34  76 N18       30.36R
ODONNELL 1N      N/A     41  38  89 N18       30.32R
PLAINS 3N        N/A     41  37  86 N16       30.34S
RALLS 1SE        N/A     42  36  81 N16       30.33S
REESE CENTER     N/A     40  37  87 N20       30.34S WCI  31
SEAGRAVES 1SW    N/A     42  36  80 N18       30.34R
SEMINOLE 2NNE    N/A     42  37  84 N21       30.34R
SLATON 2NE       N/A     42  37  83 N18       30.33R
SNYDER 3E      LGT RAIN  43  42  94 N18       30.29R
SUNDOWN 8SW      N/A     40  37  87 N17       30.35R WCI  32
TAHOKA 3NNE      N/A     41  38  89 N20       30.32S
WOLFFORTH 6SSW   N/A     41  37  84 N18       30.33F
$$

TXZ031-032-036>038-042>044-251600-
TEXAS TECH WEST TEXAS MESONET/ROLLING PLAINS

CITY           SKY/WX    TMP DP  RH WIND       PRES   REMARKS
ASPERMONT 3NE    N/A     45  40  81 N22       30.32R
FLUVANNA 3WNW    N/A     42  38  86 N25       30.29R
GRAHAM 5SSW      N/A     42  38  84 N20G29    30.31S
GUTHRIE 10WSW    N/A     43  40  89 N16       30.31S
HASKELL 1NW      N/A     46  41  84 N23       30.29R
JAYTON 1SSE      N/A     44  38  79 N20       30.32R
KNOX CITY 3NW    N/A     46  40  79 N18       30.32R
LK A HENRY 1NW   N/A     45  37  71 N18       30.33R
NORTHFIELD 1S    N/A     43  39  84 N13       30.34S
ODELL 4ENE       N/A     44  43  94 NW15      30.30S
PADUCAH 10SW     N/A     43  41  93 N17       30.32S
POST 1NE         N/A     44  38  78 N15       30.33R
RRING SPRGS 3N   N/A     41  40  95 N16G25    30.32S
SEYMOUR 3NW      N/A     46  43  90 N16       30.29S
SPUR 1W          N/A     43  38  82 N13       30.31S
WEINERT 2NNE     N/A     46  41  83 N21       30.31R
WHITE RVR 6NE    N/A     43  37  77 N20       30.31R
$$

TXZ052-054-060>062-072-078-127-140-154-169-251600-
TEXAS TECH WEST TEXAS MESONET/PERMIAN BASIN/
CONCHO VALLEY/BIG COUNTRY/EDWARDS PLATEAU

CITY           SKY/WX    TMP DP  RH WIND       PRES   REMARKS
COYANOSA 2N      N/A     48  43  82 N12       30.34R
JUNCTION 1SSW    N/A     73  55  53 NW2       30.13S
MERTZON 3NNE     N/A     54  42  64 N15       30.25R
SAN ANGELO 7NW   N/A     52  41  66 N9        30.24S
STRLNG CT 4WSW   N/A     48  40  75 N17       30.27S
ST LAWRNCE 5SW   N/A     49  40  73 N25       30.26R
SWEETWATR 11SW   N/A     46  42  85 N22       30.28R
WALL 1E          N/A     54  44  68 N20       30.28R
$$

TXZ055-058-074-075-080-082-251600-
TEXAS TECH WEST TEXAS MESONET/FAR WEST/SOUTHWEST MOUNTAINS/TRANS PECOS

CITY           SKY/WX    TMP DP  RH WIND       PRES   REMARKS
PRSMN GAP BBNP   N/A     60  42  50 N29       30.15R
GUADLPE MTN NP   N/A     45  36  72 E13       30.33R
$$



USA.gov is the U.S. government's official web portal to all federal, state and local government web resources and services.